When you browse on this site, cookies collect data to enhance your experience and personalize the content and advertising you see.
Visit our Privacy Policy to learn more. By continuing to use the site, you agree to this use of cookies and data.
  • en France
  • Liste des pays
  • À 7 jours
  • Température de l'eau
  • Carte météo
  • Widgets météo
  • user-avatar
    Se connecter

    Météo par heure à Algérie

    Ce jour, 19 Février, Mercredi

    Heure Température Précipitation Vent Pression Humidité
    00:00 +12°C° 0 mm 5 m/s 757 mmHg 86%
    01:00 +12°C° 0 mm 5 m/s 757 mmHg 86%
    02:00 +11°C° 0 mm 6 m/s 757 mmHg 86%
    03:00 +11°C° 0 mm 6 m/s 757 mmHg 86%
    04:00 +11°C° 0 mm 6 m/s 757 mmHg 85%
    05:00 +11°C° 0 mm 6 m/s 757 mmHg 84%
    06:00 +11°C° 0 mm 6 m/s 758 mmHg 83%
    07:00 +13°C° 0 mm 6 m/s 758 mmHg 80%
    08:00 +13°C° 0 mm 6 m/s 758 mmHg 77%
    09:00 +13°C° 0 mm 6 m/s 759 mmHg 74%
    10:00 +14°C° 0 mm 6 m/s 759 mmHg 70%
    11:00 +15°C° 0 mm 6 m/s 758 mmHg 66%
    12:00 +16°C° 0 mm 6 m/s 758 mmHg 62%
    13:00 +15°C° 0 mm 7 m/s 758 mmHg 63%
    14:00 +15°C° 0 mm 7 m/s 758 mmHg 64%
    15:00 +15°C° 0 mm 7 m/s 757 mmHg 65%
    16:00 +14°C° 0 mm 7 m/s 757 mmHg 69%
    17:00 +13°C° 0 mm 6 m/s 757 mmHg 74%
    18:00 +11°C° 0 mm 6 m/s 757 mmHg 78%
    19:00 +12°C° 0 mm 5 m/s 757 mmHg 78%
    20:00 +11°C° 0 mm 4 m/s 757 mmHg 79%
    21:00 +11°C° 0 mm 4 m/s 758 mmHg 79%
    22:00 +11°C° 0 mm 3 m/s 757 mmHg 78%
    23:00 +11°C° 0 mm 3 m/s 757 mmHg 78%

    Demain, 20 Février, Jeudi

    Heure Température Précipitation Vent Pression Humidité
    00:00 +10°C° 0 mm 2 m/s 757 mmHg 77%
    01:00 +10°C° 0 mm 2 m/s 756 mmHg 77%
    02:00 +10°C° 0 mm 2 m/s 756 mmHg 77%
    03:00 +10°C° 0 mm 2 m/s 755 mmHg 77%
    04:00 +10°C° 0 mm 2 m/s 755 mmHg 77%
    05:00 +10°C° 0 mm 2 m/s 755 mmHg 77%
    06:00 +10°C° 0 mm 2 m/s 755 mmHg 77%
    07:00 +12°C° 0 mm 2 m/s 755 mmHg 72%
    08:00 +14°C° 0 mm 2 m/s 755 mmHg 67%
    09:00 +15°C° 0 mm 2 m/s 755 mmHg 63%
    10:00 +16°C° 0 mm 3 m/s 754 mmHg 60%
    11:00 +17°C° 0 mm 3 m/s 754 mmHg 56%
    12:00 +18°C° 0 mm 4 m/s 754 mmHg 53%
    13:00 +18°C° 0 mm 4 m/s 753 mmHg 55%
    14:00 +18°C° 0 mm 4 m/s 753 mmHg 57%
    15:00 +17°C° 0 mm 5 m/s 752 mmHg 59%
    16:00 +16°C° 0 mm 5 m/s 752 mmHg 64%
    17:00 +15°C° 0 mm 4 m/s 752 mmHg 69%
    18:00 +14°C° 0 mm 4 m/s 753 mmHg 75%
    19:00 +13°C° 0 mm 4 m/s 753 mmHg 74%
    20:00 +13°C° 0 mm 4 m/s 753 mmHg 74%
    21:00 +13°C° 0 mm 4 m/s 754 mmHg 73%
    22:00 +13°C° 0 mm 4 m/s 754 mmHg 73%
    23:00 +13°C° 0 mm 4 m/s 754 mmHg 72%

    Après-demain, 21 Février, Vendredi

    Heure Température Précipitation Vent Pression Humidité
    00:00 +13°C° 0 mm 4 m/s 754 mmHg 72%
    01:00 +13°C° 0 mm 4 m/s 754 mmHg 72%
    02:00 +13°C° 0 mm 4 m/s 754 mmHg 72%
    03:00 +13°C° 0 mm 3 m/s 754 mmHg 72%
    04:00 +13°C° 0 mm 4 m/s 754 mmHg 73%
    05:00 +12°C° 0 mm 4 m/s 754 mmHg 75%
    06:00 +12°C° 0 mm 4 m/s 754 mmHg 76%
    13:00 +16°C° 0 mm 6 m/s 756 mmHg 72%
    14:00 +16°C° 0 mm 6 m/s 756 mmHg 73%
    15:00 +15°C° 0 mm 6 m/s 755 mmHg 75%
    16:00 +14°C° 0 mm 6 m/s 756 mmHg 78%
    17:00 +14°C° 0 mm 5 m/s 756 mmHg 80%
    18:00 +13°C° 0 mm 5 m/s 756 mmHg 83%
    19:00 +13°C° 0 mm 5 m/s 757 mmHg 83%
    20:00 +12°C° 0 mm 5 m/s 757 mmHg 84%
    21:00 +12°C° 0 mm 4 m/s 757 mmHg 84%
    22:00 +12°C° 0 mm 4 m/s 757 mmHg 84%
    23:00 +12°C° 0 mm 4 m/s 757 mmHg 85%

    22 Février, Samedi

    Heure Température Précipitation Vent Pression Humidité
    00:00 +11°C° 0 mm 4 m/s 758 mmHg 85%
    01:00 +11°C° 0 mm 4 m/s 758 mmHg 85%
    02:00 +11°C° 0 mm 4 m/s 758 mmHg 86%
    03:00 +11°C° 0 mm 4 m/s 758 mmHg 86%
    04:00 +11°C° 0 mm 4 m/s 758 mmHg 85%
    05:00 +11°C° 0 mm 4 m/s 758 mmHg 85%
    06:00 +10°C° 0 mm 4 m/s 758 mmHg 85%
    07:00 +12°C° 0 mm 4 m/s 758 mmHg 80%
    08:00 +13°C° 0 mm 4 m/s 759 mmHg 76%
    09:00 +14°C° 0 mm 4 m/s 759 mmHg 71%
    10:00 +15°C° 0 mm 4 m/s 759 mmHg 67%
    11:00 +16°C° 0 mm 5 m/s 759 mmHg 63%
    12:00 +16°C° 0 mm 6 m/s 759 mmHg 58%
    13:00 +16°C° 0 mm 6 m/s 759 mmHg 60%
    14:00 +16°C° 0 mm 7 m/s 759 mmHg 62%
    15:00 +16°C° 0 mm 7 m/s 758 mmHg 64%
    16:00 +15°C° 0 mm 7 m/s 759 mmHg 68%
    17:00 +14°C° 0 mm 6 m/s 759 mmHg 73%
    18:00 +13°C° 0 mm 6 m/s 759 mmHg 77%
    19:00 +11°C° 0 mm 6 m/s 759 mmHg 77%
    20:00 +12°C° 0 mm 5 m/s 760 mmHg 77%
    21:00 +12°C° 0 mm 5 m/s 760 mmHg 77%
    22:00 +11°C° 0 mm 4 m/s 760 mmHg 76%
    23:00 +11°C° 0 mm 4 m/s 760 mmHg 76%

    23 Février, Dimanche

    Heure Température Précipitation Vent Pression Humidité
    00:00 +11°C° 0 mm 4 m/s 760 mmHg 75%
    01:00 +11°C° 0 mm 3 m/s 760 mmHg 75%
    02:00 +11°C° 0 mm 3 m/s 759 mmHg 74%
    03:00 +11°C° 0 mm 3 m/s 759 mmHg 73%
    04:00 +10°C° 0 mm 3 m/s 759 mmHg 73%
    05:00 +10°C° 0 mm 3 m/s 759 mmHg 73%
    06:00 +10°C° 0 mm 3 m/s 760 mmHg 72%
    07:00 +12°C° 0 mm 3 m/s 760 mmHg 67%
    08:00 +13°C° 0 mm 3 m/s 760 mmHg 61%
    09:00 +14°C° 0 mm 3 m/s 760 mmHg 55%
    10:00 +16°C° 0 mm 3 m/s 760 mmHg 52%
    11:00 +17°C° 0 mm 4 m/s 760 mmHg 50%
    12:00 +19°C° 0 mm 4 m/s 760 mmHg 47%
    13:00 +18°C° 0 mm 4 m/s 760 mmHg 50%
    14:00 +18°C° 0 mm 4 m/s 759 mmHg 53%
    15:00 +18°C° 0 mm 4 m/s 759 mmHg 56%
    16:00 +17°C° 0 mm 4 m/s 759 mmHg 62%
    17:00 +15°C° 0 mm 4 m/s 759 mmHg 69%
    18:00 +13°C° 0 mm 4 m/s 759 mmHg 75%
    19:00 +13°C° 0 mm 4 m/s 759 mmHg 74%
    20:00 +13°C° 0 mm 3 m/s 759 mmHg 73%
    21:00 +13°C° 0 mm 3 m/s 759 mmHg 73%
    22:00 +13°C° 0 mm 3 m/s 759 mmHg 70%
    23:00 +14°C° 0 mm 2 m/s 759 mmHg 68%

    24 Février, Lundi

    Heure Température Précipitation Vent Pression Humidité
    00:00 +14°C° 0 mm 2 m/s 759 mmHg 65%
    01:00 +14°C° 0 mm 2 m/s 759 mmHg 63%
    02:00 +14°C° 0 mm 2 m/s 758 mmHg 61%
    03:00 +14°C° 0 mm 2 m/s 758 mmHg 59%
    04:00 +14°C° 0 mm 2 m/s 758 mmHg 58%
    05:00 +14°C° 0 mm 2 m/s 758 mmHg 57%
    06:00 +14°C° 0 mm 2 m/s 758 mmHg 56%
    07:00 +15°C° 0 mm 2 m/s 758 mmHg 52%
    08:00 +17°C° 0 mm 2 m/s 758 mmHg 48%
    09:00 +19°C° 0 mm 1 m/s 758 mmHg 45%
    10:00 +19°C° 0 mm 2 m/s 758 mmHg 42%
    11:00 +21°C° 0 mm 2 m/s 758 mmHg 39%
    12:00 +22°C° 0 mm 3 m/s 757 mmHg 36%
    13:00 +21°C° 0 mm 3 m/s 757 mmHg 39%
    14:00 +21°C° 0 mm 3 m/s 756 mmHg 42%
    15:00 +21°C° 0 mm 3 m/s 755 mmHg 44%
    16:00 +20°C° 0 mm 3 m/s 755 mmHg 49%
    17:00 +18°C° 0 mm 3 m/s 755 mmHg 54%
    18:00 +17°C° 0 mm 2 m/s 755 mmHg 59%
    19:00 +17°C° 0 mm 2 m/s 755 mmHg 58%
    20:00 +17°C° 0 mm 2 m/s 755 mmHg 56%
    21:00 +16°C° 0 mm 2 m/s 755 mmHg 55%
    22:00 +16°C° 0 mm 2 m/s 755 mmHg 54%
    23:00 +16°C° 0 mm 2 m/s 755 mmHg 52%
    Voir plus